Time,TemperatureF,DewpointF,PressureIn,WindDirection,WindDirectionDegrees,WindSpeedMPH,WindSpeedGustMPH,Humidity,HourlyPrecipIn,Conditions,Clouds,dailyrainin,SoftwareType,DateUTC
2013-04-07 00:03:00,27.9,12.1,30.17,NW,317,8.0,10.0,51,0.00,,,0.00,Wunderground v.1.15,2013-04-07 03:03:00,
2013-04-07 00:08:00,27.9,12.1,30.18,WNW,298,9.0,9.0,51,0.00,,,0.00,Wunderground v.1.15,2013-04-07 03:08:00,
2013-04-07 00:13:00,27.8,12.9,30.18,WNW,302,8.0,9.0,53,0.00,,,0.00,Wunderground v.1.15,2013-04-07 03:13:00,
2013-04-07 00:18:00,27.7,12.3,30.18,WNW,295,8.0,8.0,52,0.00,,,0.00,Wunderground v.1.15,2013-04-07 03:18:00,
2013-04-07 00:23:00,27.7,11.9,30.19,NW,306,9.0,9.0,51,0.00,,,0.00,Wunderground v.1.15,2013-04-07 03:23:00,
2013-04-07 00:28:00,27.7,11.9,30.18,WNW,294,9.0,14.0,51,0.00,,,0.00,Wunderground v.1.15,2013-04-07 03:28:00,
2013-04-07 00:38:00,27.7,11.5,30.19,WNW,288,10.0,10.0,50,0.00,,,0.00,Wunderground v.1.15,2013-04-07 03:38:00,
2013-04-07 00:43:00,27.6,11.4,30.19,WNW,293,10.0,10.0,50,0.00,,,0.00,Wunderground v.1.15,2013-04-07 03:43:00,
2013-04-07 00:48:00,27.5,11.3,30.19,NNW,333,9.0,12.0,50,0.00,,,0.00,Wunderground v.1.15,2013-04-07 03:48:00,
2013-04-07 00:53:00,27.4,12.1,30.19,WNW,297,9.0,12.0,52,0.00,,,0.00,Wunderground v.1.15,2013-04-07 03:53:00,
2013-04-07 00:58:00,27.4,11.6,30.19,NW,308,9.0,10.0,51,0.00,,,0.00,Wunderground v.1.15,2013-04-07 03:58:00,
2013-04-07 01:04:00,27.3,12.0,30.19,NW,308,10.0,10.0,52,0.00,,,0.00,Wunderground v.1.15,2013-04-07 04:04:00,
2013-04-07 01:13:00,27.1,11.3,30.19,NW,317,9.0,10.0,51,0.00,,,0.00,Wunderground v.1.15,2013-04-07 04:13:00,
2013-04-07 01:18:00,27.1,11.3,30.20,NW,306,9.0,9.0,51,0.00,,,0.00,Wunderground v.1.15,2013-04-07 04:18:00,
2013-04-07 01:23:00,27.0,11.7,30.20,WNW,289,9.0,9.0,52,0.00,,,0.00,Wunderground v.1.15,2013-04-07 04:23:00,
2013-04-07 01:29:00,27.0,11.3,30.20,WNW,301,9.0,11.0,51,0.00,,,0.00,Wunderground v.1.15,2013-04-07 04:29:00,
2013-04-07 01:34:00,27.0,11.3,30.21,West,273,10.0,11.0,51,0.00,,,0.00,Wunderground v.1.15,2013-04-07 04:34:00,
2013-04-07 01:43:00,26.9,11.6,30.22,West,281,9.0,10.0,52,0.00,,,0.00,Wunderground v.1.15,2013-04-07 04:43:00,
2013-04-07 01:48:00,26.8,11.9,30.22,WNW,292,7.0,7.0,53,0.00,,,0.00,Wunderground v.1.15,2013-04-07 04:48:00,
2013-04-07 01:53:00,26.7,11.4,30.22,NNW,334,6.0,7.0,52,0.00,,,0.00,Wunderground v.1.15,2013-04-07 04:53:00,
2013-04-07 01:58:00,26.7,11.8,30.22,WNW,302,7.0,13.0,53,0.00,,,0.00,Wunderground v.1.15,2013-04-07 04:58:00,
2013-04-07 02:08:00,26.7,11.0,30.22,WNW,293,9.0,12.0,51,0.00,,,0.00,Wunderground v.1.15,2013-04-07 05:08:00,
2013-04-07 02:13:00,26.6,11.3,30.22,WNW,295,9.0,12.0,52,0.00,,,0.00,Wunderground v.1.15,2013-04-07 05:13:00,
2013-04-07 02:18:00,26.5,11.2,30.22,NW,321,8.0,8.0,52,0.00,,,0.00,Wunderground v.1.15,2013-04-07 05:18:00,
2013-04-07 02:23:00,26.5,11.2,30.22,WNW,286,8.0,8.0,52,0.00,,,0.00,Wunderground v.1.15,2013-04-07 05:23:00,
2013-04-07 02:28:00,26.3,11.5,30.22,NW,306,8.0,8.0,53,0.00,,,0.00,Wunderground v.1.15,2013-04-07 05:28:00,
2013-04-07 02:33:00,26.3,11.5,30.22,WNW,298,8.0,9.0,53,0.00,,,0.00,Wunderground v.1.15,2013-04-07 05:33:00,
2013-04-07 02:38:00,26.2,11.4,30.22,WSW,239,8.0,8.0,53,0.00,,,0.00,Wunderground v.1.15,2013-04-07 05:38:00,
2013-04-07 02:43:00,26.2,10.9,30.22,WNW,300,8.0,13.0,52,0.00,,,0.00,Wunderground v.1.15,2013-04-07 05:43:00,
2013-04-07 02:48:00,26.1,11.3,30.22,WNW,286,8.0,8.0,53,0.00,,,0.00,Wunderground v.1.15,2013-04-07 05:48:00,
2013-04-07 02:53:00,26.1,11.3,30.22,WNW,298,8.0,9.0,53,0.00,,,0.00,Wunderground v.1.15,2013-04-07 05:53:00,
2013-04-07 02:58:00,26.0,11.6,30.22,NW,305,7.0,7.0,54,0.00,,,0.00,Wunderground v.1.15,2013-04-07 05:58:00,
2013-04-07 03:13:00,26.0,11.6,30.23,WNW,294,9.0,9.0,54,0.00,,,0.00,Wunderground v.1.15,2013-04-07 06:13:00,
2013-04-07 03:28:00,25.8,11.0,30.23,NW,323,8.0,8.0,53,0.00,,,0.00,Wunderground v.1.15,2013-04-07 06:28:00,
2013-04-07 03:33:00,25.7,10.9,30.23,WNW,296,7.0,8.0,53,0.00,,,0.00,Wunderground v.1.15,2013-04-07 06:33:00,
2013-04-07 03:38:00,25.6,11.2,30.23,WNW,292,6.0,6.0,54,0.00,,,0.00,Wunderground v.1.15,2013-04-07 06:38:00,
2013-04-07 03:43:00,25.6,11.2,30.23,NW,323,7.0,7.0,54,0.00,,,0.00,Wunderground v.1.15,2013-04-07 06:43:00,
2013-04-07 03:53:00,25.4,11.0,30.23,WNW,302,7.0,7.0,54,0.00,,,0.00,Wunderground v.1.15,2013-04-07 06:53:00,
2013-04-07 03:58:00,25.4,11.0,30.23,WNW,299,6.0,6.0,54,0.00,,,0.00,Wunderground v.1.15,2013-04-07 06:58:00,
2013-04-07 04:03:00,25.3,11.0,30.23,NW,308,6.0,6.0,54,0.00,,,0.00,Wunderground v.1.15,2013-04-07 07:03:00,
2013-04-07 04:08:00,25.2,10.9,30.23,NW,304,6.0,6.0,54,0.00,,,0.00,Wunderground v.1.15,2013-04-07 07:08:00,
2013-04-07 04:23:00,25.1,11.2,30.24,WNW,284,7.0,7.0,55,0.00,,,0.00,Wunderground v.1.15,2013-04-07 07:23:00,
2013-04-07 04:28:00,25.2,11.7,30.24,NW,315,7.0,7.0,56,0.00,,,0.00,Wunderground v.1.15,2013-04-07 07:28:00,
2013-04-07 04:43:00,25.0,11.5,30.25,WNW,299,6.0,8.0,56,0.00,,,0.00,Wunderground v.1.15,2013-04-07 07:43:00,
2013-04-07 04:53:00,24.8,11.7,30.25,NW,309,5.0,5.0,57,0.00,,,0.00,Wunderground v.1.15,2013-04-07 07:53:00,
2013-04-07 04:58:00,24.8,11.7,30.26,WNW,296,5.0,5.0,57,0.00,,,0.00,Wunderground v.1.15,2013-04-07 07:58:00,
2013-04-07 05:03:00,24.8,11.7,30.26,WNW,298,6.0,6.0,57,0.00,,,0.00,Wunderground v.1.15,2013-04-07 08:03:00,
2013-04-07 05:08:00,24.8,11.7,30.26,NW,317,5.0,6.0,57,0.00,,,0.00,Wunderground v.1.15,2013-04-07 08:08:00,
2013-04-07 05:23:00,24.7,12.0,30.26,WNW,294,6.0,8.0,58,0.00,,,0.00,Wunderground v.1.15,2013-04-07 08:23:00,
2013-04-07 05:28:00,24.6,11.9,30.26,WNW,292,6.0,6.0,58,0.00,,,0.00,Wunderground v.1.15,2013-04-07 08:28:00,
2013-04-07 05:39:00,24.5,12.2,30.27,NW,314,6.0,7.0,59,0.00,,,0.00,Wunderground v.1.15,2013-04-07 08:39:00,
2013-04-07 05:48:00,24.3,12.4,30.26,NW,316,6.0,6.0,60,0.00,,,0.00,Wunderground v.1.15,2013-04-07 08:48:00,
2013-04-07 05:58:00,24.2,12.3,30.26,NW,306,6.0,6.0,60,0.00,,,0.00,Wunderground v.1.15,2013-04-07 08:58:00,
2013-04-07 06:03:00,24.2,13.0,30.27,WNW,291,6.0,7.0,62,0.00,,,0.00,Wunderground v.1.15,2013-04-07 09:03:00,
2013-04-07 06:08:00,24.2,13.0,30.27,NW,305,5.0,5.0,62,0.00,,,0.00,Wunderground v.1.15,2013-04-07 09:08:00,
2013-04-07 06:13:00,24.0,12.9,30.26,NNW,334,5.0,10.0,62,0.00,,,0.00,Wunderground v.1.15,2013-04-07 09:13:00,
2013-04-07 06:18:00,24.1,13.3,30.27,NW,304,5.0,5.0,63,0.00,,,0.00,Wunderground v.1.15,2013-04-07 09:18:00,
2013-04-07 06:23:00,24.0,13.2,30.28,WNW,289,4.0,5.0,63,0.00,,,0.00,Wunderground v.1.15,2013-04-07 09:23:00,
2013-04-07 06:28:00,24.0,13.2,30.28,WNW,286,3.0,3.0,63,0.00,,,0.00,Wunderground v.1.15,2013-04-07 09:28:00,
2013-04-07 06:33:00,24.0,13.2,30.28,West,267,3.0,3.0,63,0.00,,,0.00,Wunderground v.1.15,2013-04-07 09:33:00,
2013-04-07 06:38:00,24.0,13.2,30.29,WSW,244,3.0,4.0,63,0.00,,,0.00,Wunderground v.1.15,2013-04-07 09:38:00,
2013-04-07 06:48:00,24.0,13.2,30.30,West,279,4.0,4.0,63,0.00,,,0.00,Wunderground v.1.15,2013-04-07 09:48:00,
2013-04-07 06:53:00,24.1,13.3,30.31,WSW,240,3.0,6.0,63,0.00,,,0.00,Wunderground v.1.15,2013-04-07 09:53:00,
2013-04-07 06:58:00,24.1,13.3,30.31,WSW,249,3.0,5.0,63,0.00,,,0.00,Wunderground v.1.15,2013-04-07 09:58:00,
2013-04-07 07:03:00,24.1,13.3,30.31,West,277,3.0,5.0,63,0.00,,,0.00,Wunderground v.1.15,2013-04-07 10:03:00,
2013-04-07 07:08:00,24.1,13.7,30.31,WNW,302,3.0,7.0,64,0.00,,,0.00,Wunderground v.1.15,2013-04-07 10:08:00,
2013-04-07 07:18:00,24.0,13.6,30.31,NW,321,3.0,3.0,64,0.00,,,0.00,Wunderground v.1.15,2013-04-07 10:18:00,
2013-04-07 07:23:00,24.0,13.6,30.31,WNW,294,3.0,3.0,64,0.00,,,0.00,Wunderground v.1.15,2013-04-07 10:23:00,
2013-04-07 07:28:00,24.0,13.6,30.31,WNW,300,4.0,4.0,64,0.00,,,0.00,Wunderground v.1.15,2013-04-07 10:28:00,
2013-04-07 07:33:00,24.2,14.1,30.32,WNW,287,4.0,4.0,65,0.00,,,0.00,Wunderground v.1.15,2013-04-07 10:33:00,
2013-04-07 07:43:00,24.6,14.1,30.32,WSW,254,2.0,3.0,64,0.00,,,0.00,Wunderground v.1.15,2013-04-07 10:43:00,
2013-04-07 07:48:00,25.0,14.5,30.33,West,280,3.0,3.0,64,0.00,,,0.00,Wunderground v.1.15,2013-04-07 10:48:00,
2013-04-07 07:53:00,25.3,14.5,30.33,WSW,250,3.0,3.0,63,0.00,,,0.00,Wunderground v.1.15,2013-04-07 10:53:00,
2013-04-07 07:58:00,25.6,14.4,30.33,WSW,242,4.0,4.0,62,0.00,,,0.00,Wunderground v.1.15,2013-04-07 10:58:00,
2013-04-07 08:03:00,25.8,14.9,30.33,West,272,3.0,4.0,63,0.00,,,0.00,Wunderground v.1.15,2013-04-07 11:03:00,
2013-04-07 08:08:00,26.1,14.8,30.33,WNW,290,3.0,6.0,62,0.00,,,0.00,Wunderground v.1.15,2013-04-07 11:08:00,
2013-04-07 08:19:00,26.7,14.7,30.34,West,273,5.0,5.0,60,0.00,,,0.00,Wunderground v.1.15,2013-04-07 11:19:00,
2013-04-07 08:28:00,27.1,14.7,30.34,West,279,4.0,4.0,59,0.00,,,0.00,Wunderground v.1.15,2013-04-07 11:28:00,
2013-04-07 08:33:00,27.4,14.9,30.34,WSW,257,4.0,4.0,59,0.00,,,0.00,Wunderground v.1.15,2013-04-07 11:33:00,
2013-04-07 08:39:00,27.7,15.2,30.34,NW,314,4.0,5.0,59,0.00,,,0.00,Wunderground v.1.15,2013-04-07 11:39:00,
2013-04-07 08:49:00,28.7,15.4,30.34,NW,325,5.0,5.0,57,0.00,,,0.00,Wunderground v.1.15,2013-04-07 11:49:00,
2013-04-07 08:58:00,28.3,15.8,30.33,NW,318,4.0,8.0,59,0.00,,,0.00,Wunderground v.1.15,2013-04-07 11:58:00,
2013-04-07 09:03:00,29.1,15.7,30.33,NW,324,5.0,8.0,57,0.00,,,0.00,Wunderground v.1.15,2013-04-07 12:03:00,
2013-04-07 09:13:00,29.3,15.1,30.33,West,260,4.0,6.0,55,0.00,,,0.00,Wunderground v.1.15,2013-04-07 12:13:00,
2013-04-07 09:18:00,28.8,15.9,30.33,WNW,289,4.0,4.0,58,0.00,,,0.00,Wunderground v.1.15,2013-04-07 12:18:00,
2013-04-07 09:23:00,29.9,16.1,30.33,WNW,292,4.0,6.0,56,0.00,,,0.00,Wunderground v.1.15,2013-04-07 12:23:00,
2013-04-07 09:28:00,30.7,16.0,30.33,NW,306,4.0,4.0,54,0.00,,,0.00,Wunderground v.1.15,2013-04-07 12:28:00,
2013-04-07 09:38:00,32.2,17.0,30.33,NNW,335,3.0,3.0,53,0.00,,,0.00,Wunderground v.1.15,2013-04-07 12:38:00,
2013-04-07 09:43:00,32.8,16.6,30.33,NNW,331,2.0,3.0,51,0.00,,,0.00,Wunderground v.1.15,2013-04-07 12:43:00,
2013-04-07 09:48:00,33.0,15.9,30.33,West,272,2.0,2.0,49,0.00,,,0.00,Wunderground v.1.15,2013-04-07 12:48:00,
2013-04-07 09:53:00,31.8,15.7,30.33,WNW,293,2.0,8.0,51,0.00,,,0.00,Wunderground v.1.15,2013-04-07 12:53:00,
2013-04-07 09:58:00,30.9,15.8,30.33,WSW,248,3.0,3.0,53,0.00,,,0.00,Wunderground v.1.15,2013-04-07 12:58:00,
2013-04-07 10:03:00,30.1,16.3,30.34,NW,310,4.0,5.0,56,0.00,,,0.00,Wunderground v.1.15,2013-04-07 13:03:00,
2013-04-07 10:09:00,31.1,16.4,30.33,NW,315,4.0,4.0,54,0.00,,,0.00,Wunderground v.1.15,2013-04-07 13:09:00,
2013-04-07 10:18:00,32.4,14.9,30.33,SSW,206,1.0,1.0,48,0.00,,,0.00,Wunderground v.1.15,2013-04-07 13:18:00,
2013-04-07 10:23:00,32.8,16.2,30.33,West,268,1.0,1.0,50,0.00,,,0.00,Wunderground v.1.15,2013-04-07 13:23:00,
2013-04-07 10:28:00,32.8,16.6,30.33,WNW,295,2.0,5.0,51,0.00,,,0.00,Wunderground v.1.15,2013-04-07 13:28:00,
2013-04-07 10:33:00,32.4,14.9,30.33,North,349,3.0,5.0,48,0.00,,,0.00,Wunderground v.1.15,2013-04-07 13:33:00,
2013-04-07 10:38:00,32.9,15.8,30.33,North,349,2.0,2.0,49,0.00,,,0.00,Wunderground v.1.15,2013-04-07 13:38:00,
2013-04-07 10:48:00,32.3,17.5,30.33,WNW,289,3.0,3.0,54,0.00,,,0.00,Wunderground v.1.15,2013-04-07 13:48:00,
2013-04-07 10:53:00,32.9,15.3,30.33,NNW,346,3.0,3.0,48,0.00,,,0.00,Wunderground v.1.15,2013-04-07 13:53:00,
2013-04-07 10:58:00,32.2,14.2,30.33,WSW,239,3.0,3.0,47,0.00,,,0.00,Wunderground v.1.15,2013-04-07 13:58:00,
2013-04-07 11:03:00,32.0,15.9,30.33,West,277,3.0,5.0,51,0.00,,,0.00,Wunderground v.1.15,2013-04-07 14:03:00,
2013-04-07 11:13:00,31.9,18.0,30.33,South,190,5.0,6.0,56,0.00,,,0.00,Wunderground v.1.15,2013-04-07 14:13:00,
2013-04-07 11:23:00,32.1,19.0,30.33,West,266,4.0,7.0,58,0.00,,,0.00,Wunderground v.1.15,2013-04-07 14:23:00,
2013-04-07 11:28:00,32.1,19.4,30.33,SW,226,4.0,4.0,59,0.00,,,0.00,Wunderground v.1.15,2013-04-07 14:28:00,
2013-04-07 11:33:00,32.3,18.8,30.33,WSW,251,4.0,5.0,57,0.00,,,0.00,Wunderground v.1.15,2013-04-07 14:33:00,
2013-04-07 11:38:00,31.9,20.0,30.32,WSW,252,4.0,4.0,61,0.00,,,0.00,Wunderground v.1.15,2013-04-07 14:38:00,
2013-04-07 11:43:00,32.0,18.1,30.33,WSW,250,4.0,4.0,56,0.00,,,0.00,Wunderground v.1.15,2013-04-07 14:43:00,
2013-04-07 11:48:00,32.1,18.2,30.32,West,280,4.0,4.0,56,0.00,,,0.00,Wunderground v.1.15,2013-04-07 14:48:00,
2013-04-07 11:53:00,32.4,19.7,30.32,WSW,255,5.0,5.0,59,0.00,,,0.00,Wunderground v.1.15,2013-04-07 14:53:00,
2013-04-07 11:58:00,32.6,19.4,30.32,SW,234,4.0,4.0,58,0.00,,,0.00,Wunderground v.1.15,2013-04-07 14:58:00,
2013-04-07 12:03:00,33.0,19.4,30.32,South,185,3.0,4.0,57,0.00,,,0.00,Wunderground v.1.15,2013-04-07 15:03:00,
2013-04-07 12:08:00,33.2,20.0,30.32,West,266,3.0,6.0,58,0.00,,,0.00,Wunderground v.1.15,2013-04-07 15:08:00,
2013-04-07 12:13:00,32.7,19.1,30.31,WNW,285,4.0,6.0,57,0.00,,,0.00,Wunderground v.1.15,2013-04-07 15:13:00,
2013-04-07 12:23:00,33.9,19.8,30.31,SW,225,4.0,5.0,56,0.00,,,0.00,Wunderground v.1.15,2013-04-07 15:23:00,
2013-04-07 12:28:00,34.3,21.4,30.30,West,266,4.0,5.0,59,0.00,,,0.00,Wunderground v.1.15,2013-04-07 15:28:00,
2013-04-07 12:33:00,34.0,19.9,30.30,West,265,4.0,6.0,56,0.00,,,0.00,Wunderground v.1.15,2013-04-07 15:33:00,
2013-04-07 12:38:00,34.5,19.5,30.30,South,188,4.0,4.0,54,0.00,,,0.00,Wunderground v.1.15,2013-04-07 15:38:00,
2013-04-07 12:43:00,34.7,19.7,30.30,WSW,238,3.0,4.0,54,0.00,,,0.00,Wunderground v.1.15,2013-04-07 15:43:00,
2013-04-07 12:48:00,35.1,20.5,30.30,West,261,3.0,7.0,55,0.00,,,0.00,Wunderground v.1.15,2013-04-07 15:48:00,
2013-04-07 12:58:00,34.4,16.7,30.30,WSW,237,5.0,5.0,48,0.00,,,0.00,Wunderground v.1.15,2013-04-07 15:58:00,
2013-04-07 13:03:00,34.8,18.9,30.30,West,279,3.0,7.0,52,0.00,,,0.00,Wunderground v.1.15,2013-04-07 16:03:00,
2013-04-07 13:08:00,34.4,17.7,30.30,WSW,244,4.0,4.0,50,0.00,,,0.00,Wunderground v.1.15,2013-04-07 16:08:00,
2013-04-07 13:13:00,34.2,17.0,30.29,West,261,5.0,6.0,49,0.00,,,0.00,Wunderground v.1.15,2013-04-07 16:13:00,
2013-04-07 13:18:00,34.0,14.3,30.28,WSW,245,6.0,6.0,44,0.00,,,0.00,Wunderground v.1.15,2013-04-07 16:18:00,
2013-04-07 13:23:00,34.0,13.3,30.28,SW,234,5.0,6.0,42,0.00,,,0.00,Wunderground v.1.15,2013-04-07 16:23:00,
2013-04-07 13:28:00,34.0,12.7,30.28,WNW,283,4.0,9.0,41,0.00,,,0.00,Wunderground v.1.15,2013-04-07 16:28:00,
2013-04-07 13:33:00,34.1,13.9,30.28,SSW,194,5.0,9.0,43,0.00,,,0.00,Wunderground v.1.15,2013-04-07 16:33:00,
2013-04-07 13:39:00,34.7,13.4,30.27,SW,225,5.0,5.0,41,0.00,,,0.00,Wunderground v.1.15,2013-04-07 16:39:00,
2013-04-07 13:48:00,35.3,12.8,30.27,SW,216,3.0,3.0,39,0.00,,,0.00,Wunderground v.1.15,2013-04-07 16:48:00,
2013-04-07 13:53:00,35.2,8.9,30.27,WSW,242,3.0,3.0,33,0.00,,,0.00,Wunderground v.1.15,2013-04-07 16:53:00,
2013-04-07 13:59:00,35.2,9.6,30.27,WSW,254,3.0,3.0,34,0.00,,,0.00,Wunderground v.1.15,2013-04-07 16:59:00,
2013-04-07 14:03:00,35.7,10.0,30.26,SSW,198,2.0,4.0,34,0.00,,,0.00,Wunderground v.1.15,2013-04-07 17:03:00,
2013-04-07 14:13:00,35.8,9.5,30.25,SSW,205,4.0,4.0,33,0.00,,,0.00,Wunderground v.1.15,2013-04-07 17:13:00,
2013-04-07 14:18:00,36.6,14.5,30.25,NW,311,3.0,3.0,40,0.00,,,0.00,Wunderground v.1.15,2013-04-07 17:18:00,
2013-04-07 14:23:00,37.3,11.5,30.25,WSW,246,3.0,3.0,34,0.00,,,0.00,Wunderground v.1.15,2013-04-07 17:23:00,
2013-04-07 14:28:00,37.3,11.5,30.25,West,272,3.0,3.0,34,0.00,,,0.00,Wunderground v.1.15,2013-04-07 17:28:00,
2013-04-07 14:33:00,37.6,9.6,30.25,WSW,248,3.0,3.0,31,0.00,,,0.00,Wunderground v.1.15,2013-04-07 17:33:00,
2013-04-07 14:38:00,37.8,8.3,30.24,NNE,20,2.0,2.0,29,0.00,,,0.00,Wunderground v.1.15,2013-04-07 17:38:00,
2013-04-07 14:43:00,38.2,9.4,30.24,North,349,2.0,2.0,30,0.00,,,0.00,Wunderground v.1.15,2013-04-07 17:43:00,
2013-04-07 14:48:00,38.6,11.2,30.25,WSW,244,3.0,5.0,32,0.00,,,0.00,Wunderground v.1.15,2013-04-07 17:48:00,
2013-04-07 14:53:00,38.8,10.0,30.24,WNW,286,4.0,5.0,30,0.00,,,0.00,Wunderground v.1.15,2013-04-07 17:53:00,
2013-04-07 14:58:00,39.1,9.5,30.24,WSW,254,4.0,6.0,29,0.00,,,0.00,Wunderground v.1.15,2013-04-07 17:58:00,
2013-04-07 15:03:00,38.5,8.2,30.24,WSW,255,6.0,6.0,28,0.00,,,0.00,Wunderground v.1.15,2013-04-07 18:03:00,
2013-04-07 15:08:00,38.2,10.2,30.23,South,179,5.0,5.0,31,0.00,,,0.00,Wunderground v.1.15,2013-04-07 18:08:00,
2013-04-07 15:13:00,37.8,10.5,30.23,SW,221,5.0,5.0,32,0.00,,,0.00,Wunderground v.1.15,2013-04-07 18:13:00,
2013-04-07 15:18:00,38.1,12.2,30.23,SSW,205,5.0,5.0,34,0.00,,,0.00,Wunderground v.1.15,2013-04-07 18:18:00,
2013-04-07 15:23:00,38.3,11.7,30.23,SSW,196,4.0,5.0,33,0.00,,,0.00,Wunderground v.1.15,2013-04-07 18:23:00,
2013-04-07 15:28:00,38.3,11.7,30.23,SSW,209,5.0,5.0,33,0.00,,,0.00,Wunderground v.1.15,2013-04-07 18:28:00,
2013-04-07 15:33:00,38.4,11.8,30.23,SW,236,5.0,6.0,33,0.00,,,0.00,Wunderground v.1.15,2013-04-07 18:33:00,
2013-04-07 15:38:00,38.9,12.2,30.22,SW,232,4.0,4.0,33,0.00,,,0.00,Wunderground v.1.15,2013-04-07 18:38:00,
2013-04-07 15:43:00,39.0,11.6,30.22,SW,225,4.0,4.0,32,0.00,,,0.00,Wunderground v.1.15,2013-04-07 18:43:00,
2013-04-07 15:48:00,39.3,15.2,30.21,SSW,200,3.0,3.0,37,0.00,,,0.00,Wunderground v.1.15,2013-04-07 18:48:00,
2013-04-07 15:53:00,39.8,16.2,30.21,WSW,247,3.0,3.0,38,0.00,,,0.00,Wunderground v.1.15,2013-04-07 18:53:00,
2013-04-07 15:58:00,40.0,13.8,30.20,SSW,213,3.0,4.0,34,0.00,,,0.00,Wunderground v.1.15,2013-04-07 18:58:00,
2013-04-07 16:04:00,39.8,10.8,30.20,SW,234,3.0,4.0,30,0.00,,,0.00,Wunderground v.1.15,2013-04-07 19:04:00,
2013-04-07 16:08:00,39.8,16.8,30.20,South,188,3.0,3.0,39,0.00,,,0.00,Wunderground v.1.15,2013-04-07 19:08:00,
2013-04-07 16:13:00,39.7,12.9,30.19,WSW,254,3.0,5.0,33,0.00,,,0.00,Wunderground v.1.15,2013-04-07 19:13:00,
2013-04-07 16:19:00,39.4,14.6,30.19,South,188,3.0,3.0,36,0.00,,,0.00,Wunderground v.1.15,2013-04-07 19:19:00,
2013-04-07 16:23:00,39.3,13.2,30.19,South,171,3.0,5.0,34,0.00,,,0.00,Wunderground v.1.15,2013-04-07 19:23:00,
2013-04-07 16:28:00,39.4,13.3,30.19,South,188,4.0,4.0,34,0.00,,,0.00,Wunderground v.1.15,2013-04-07 19:28:00,
2013-04-07 16:33:00,40.0,12.5,30.19,South,190,3.0,4.0,32,0.00,,,0.00,Wunderground v.1.15,2013-04-07 19:33:00,
2013-04-07 16:38:00,40.2,14.0,30.18,South,171,2.0,3.0,34,0.00,,,0.00,Wunderground v.1.15,2013-04-07 19:38:00,
2013-04-07 16:43:00,40.1,13.3,30.18,SSW,195,2.0,3.0,33,0.00,,,0.00,Wunderground v.1.15,2013-04-07 19:43:00,
2013-04-07 16:48:00,40.1,13.9,30.18,SSE,157,2.0,2.0,34,0.00,,,0.00,Wunderground v.1.15,2013-04-07 19:48:00,
2013-04-07 16:53:00,40.0,15.2,30.18,SSE,147,2.0,2.0,36,0.00,,,0.00,Wunderground v.1.15,2013-04-07 19:53:00,
2013-04-07 16:58:00,40.0,16.4,30.18,SSE,160,2.0,3.0,38,0.00,,,0.00,Wunderground v.1.15,2013-04-07 19:58:00,
2013-04-07 17:03:00,40.2,16.6,30.17,SSE,165,2.0,4.0,38,0.00,,,0.00,Wunderground v.1.15,2013-04-07 20:03:00,
2013-04-07 17:08:00,40.3,14.8,30.18,SSW,200,2.0,2.0,35,0.00,,,0.00,Wunderground v.1.15,2013-04-07 20:08:00,
2013-04-07 17:13:00,40.2,16.6,30.18,SSE,159,2.0,2.0,38,0.00,,,0.00,Wunderground v.1.15,2013-04-07 20:13:00,
2013-04-07 17:18:00,40.1,19.4,30.18,SSE,164,2.0,2.0,43,0.00,,,0.00,Wunderground v.1.15,2013-04-07 20:18:00,
2013-04-07 17:23:00,39.7,17.3,30.18,South,183,3.0,3.0,40,0.00,,,0.00,Wunderground v.1.15,2013-04-07 20:23:00,
2013-04-07 17:29:00,39.4,17.6,30.18,South,175,3.0,3.0,41,0.00,,,0.00,Wunderground v.1.15,2013-04-07 20:29:00,
2013-04-07 17:34:00,39.2,16.9,30.18,SSE,161,2.0,3.0,40,0.00,,,0.00,Wunderground v.1.15,2013-04-07 20:34:00,
2013-04-07 17:38:00,39.1,17.9,30.18,SE,142,2.0,3.0,42,0.00,,,0.00,Wunderground v.1.15,2013-04-07 20:38:00,
2013-04-07 17:43:00,38.7,16.4,30.18,SSE,164,2.0,3.0,40,0.00,,,0.00,Wunderground v.1.15,2013-04-07 20:43:00,
2013-04-07 17:53:00,37.8,15.6,30.17,SSE,157,2.0,2.0,40,0.00,,,0.00,Wunderground v.1.15,2013-04-07 20:53:00,
2013-04-07 17:58:00,37.5,15.3,30.17,SSE,158,2.0,3.0,40,0.00,,,0.00,Wunderground v.1.15,2013-04-07 20:58:00,
2013-04-07 18:03:00,37.2,15.6,30.18,SE,138,2.0,3.0,41,0.00,,,0.00,Wunderground v.1.15,2013-04-07 21:03:00,
2013-04-07 18:08:00,36.8,15.8,30.17,SSE,149,2.0,2.0,42,0.00,,,0.00,Wunderground v.1.15,2013-04-07 21:08:00,
2013-04-07 18:13:00,36.4,14.3,30.18,SE,133,2.0,2.0,40,0.00,,,0.00,Wunderground v.1.15,2013-04-07 21:13:00,
2013-04-07 18:18:00,36.2,14.2,30.17,SE,142,2.0,2.0,40,0.00,,,0.00,Wunderground v.1.15,2013-04-07 21:18:00,
2013-04-07 18:29:00,35.8,13.8,30.17,SSE,159,2.0,2.0,40,0.00,,,0.00,Wunderground v.1.15,2013-04-07 21:29:00,
2013-04-07 18:33:00,35.6,13.0,30.16,ESE,115,2.0,2.0,39,0.00,,,0.00,Wunderground v.1.15,2013-04-07 21:33:00,
2013-04-07 18:38:00,35.6,12.5,30.16,SE,135,2.0,4.0,38,0.00,,,0.00,Wunderground v.1.15,2013-04-07 21:38:00,
2013-04-07 18:43:00,35.6,13.0,30.16,SE,134,2.0,4.0,39,0.00,,,0.00,Wunderground v.1.15,2013-04-07 21:43:00,
2013-04-07 18:53:00,35.5,12.4,30.16,SE,140,2.0,3.0,38,0.00,,,0.00,Wunderground v.1.15,2013-04-07 21:53:00,
2013-04-07 18:58:00,35.4,12.3,30.16,ESE,105,3.0,4.0,38,0.00,,,0.00,Wunderground v.1.15,2013-04-07 21:58:00,
2013-04-07 19:08:00,35.3,14.5,30.15,SE,135,2.0,2.0,42,0.00,,,0.00,Wunderground v.1.15,2013-04-07 22:08:00,
2013-04-07 19:13:00,35.2,13.3,30.15,SE,138,2.0,2.0,40,0.00,,,0.00,Wunderground v.1.15,2013-04-07 22:13:00,
2013-04-07 19:18:00,35.2,14.4,30.15,SE,126,2.0,2.0,42,0.00,,,0.00,Wunderground v.1.15,2013-04-07 22:18:00,
2013-04-07 19:23:00,35.2,13.8,30.15,SE,129,2.0,2.0,41,0.00,,,0.00,Wunderground v.1.15,2013-04-07 22:23:00,
2013-04-07 19:28:00,35.2,14.4,30.15,ESE,123,2.0,2.0,42,0.00,,,0.00,Wunderground v.1.15,2013-04-07 22:28:00,
2013-04-07 19:33:00,35.1,15.9,30.15,ESE,119,2.0,2.0,45,0.00,,,0.00,Wunderground v.1.15,2013-04-07 22:33:00,
2013-04-07 19:38:00,35.0,16.3,30.15,SSE,159,2.0,2.0,46,0.00,,,0.00,Wunderground v.1.15,2013-04-07 22:38:00,
2013-04-07 19:43:00,34.8,16.6,30.15,SE,144,2.0,2.0,47,0.00,,,0.00,Wunderground v.1.15,2013-04-07 22:43:00,
2013-04-07 19:49:00,34.7,16.5,30.15,SE,137,1.0,1.0,47,0.00,,,0.00,Wunderground v.1.15,2013-04-07 22:49:00,
2013-04-07 19:53:00,34.5,16.3,30.15,SSE,147,1.0,1.0,47,0.00,,,0.00,Wunderground v.1.15,2013-04-07 22:53:00,
2013-04-07 19:58:00,34.5,17.3,30.15,South,180,1.0,2.0,49,0.00,,,0.00,Wunderground v.1.15,2013-04-07 22:58:00,
2013-04-07 20:08:00,34.3,18.5,30.16,SSW,192,2.0,3.0,52,0.00,,,0.00,Wunderground v.1.15,2013-04-07 23:08:00,
2013-04-07 20:13:00,34.0,18.6,30.16,SSW,193,2.0,3.0,53,0.00,,,0.00,Wunderground v.1.15,2013-04-07 23:13:00,
2013-04-07 20:18:00,33.9,19.0,30.16,South,181,3.0,3.0,54,0.00,,,0.00,Wunderground v.1.15,2013-04-07 23:18:00,
2013-04-07 20:23:00,33.8,19.3,30.16,South,179,3.0,3.0,55,0.00,,,0.00,Wunderground v.1.15,2013-04-07 23:23:00,
2013-04-07 20:28:00,33.8,19.3,30.16,SSE,159,2.0,2.0,55,0.00,,,0.00,Wunderground v.1.15,2013-04-07 23:28:00,
2013-04-07 20:33:00,33.7,18.8,30.15,South,178,1.0,3.0,54,0.00,,,0.00,Wunderground v.1.15,2013-04-07 23:33:00,
2013-04-07 20:38:00,33.6,19.6,30.15,SSW,194,2.0,4.0,56,0.00,,,0.00,Wunderground v.1.15,2013-04-07 23:38:00,
2013-04-07 20:48:00,33.3,19.3,30.16,SSW,195,2.0,2.0,56,0.00,,,0.00,Wunderground v.1.15,2013-04-07 23:48:00,
2013-04-07 20:53:00,33.2,19.6,30.15,South,187,2.0,3.0,57,0.00,,,0.00,Wunderground v.1.15,2013-04-07 23:53:00,
2013-04-07 20:58:00,33.0,19.8,30.15,South,188,2.0,2.0,58,0.00,,,0.00,Wunderground v.1.15,2013-04-07 23:58:00,
2013-04-07 21:03:00,33.0,19.8,30.14,SW,223,1.0,2.0,58,0.00,,,0.00,Wunderground v.1.15,2013-04-08 00:03:00,
2013-04-07 21:08:00,32.9,20.5,30.14,SW,223,1.0,1.0,60,0.00,,,0.00,Wunderground v.1.15,2013-04-08 00:08:00,
2013-04-07 21:13:00,32.8,20.4,30.14,SW,223,0.0,1.0,60,0.00,,,0.00,Wunderground v.1.15,2013-04-08 00:13:00,
2013-04-07 21:23:00,32.7,21.5,30.14,SW,223,0.0,2.0,63,0.00,,,0.00,Wunderground v.1.15,2013-04-08 00:23:00,
2013-04-07 21:28:00,32.6,21.0,30.14,SW,223,0.0,3.0,62,0.00,,,0.00,Wunderground v.1.15,2013-04-08 00:28:00,
2013-04-07 21:33:00,32.5,21.7,30.14,SW,223,1.0,3.0,64,0.00,,,0.00,Wunderground v.1.15,2013-04-08 00:33:00,
2013-04-07 21:38:00,32.5,21.7,30.14,SW,223,1.0,1.0,64,0.00,,,0.00,Wunderground v.1.15,2013-04-08 00:38:00,
2013-04-07 21:43:00,32.4,22.7,30.14,SW,223,1.0,1.0,67,0.00,,,0.00,Wunderground v.1.15,2013-04-08 00:43:00,
2013-04-07 21:48:00,32.4,23.0,30.15,SW,235,0.0,0.0,68,0.00,,,0.00,Wunderground v.1.15,2013-04-08 00:48:00,
2013-04-07 21:53:00,32.4,21.9,30.14,SW,235,1.0,1.0,65,0.00,,,0.00,Wunderground v.1.15,2013-04-08 00:53:00,
2013-04-07 21:58:00,32.3,22.2,30.14,SW,235,0.0,0.0,66,0.00,,,0.00,Wunderground v.1.15,2013-04-08 00:58:00,
2013-04-07 22:03:00,32.3,21.8,30.13,SW,235,0.0,0.0,65,0.00,,,0.00,Wunderground v.1.15,2013-04-08 01:03:00,
2013-04-07 22:08:00,32.3,22.2,30.13,SW,235,0.0,0.0,66,0.00,,,0.00,Wunderground v.1.15,2013-04-08 01:08:00,
2013-04-07 22:13:00,32.4,21.6,30.14,SW,229,0.0,2.0,64,0.00,,,0.00,Wunderground v.1.15,2013-04-08 01:13:00,
2013-04-07 22:18:00,32.8,21.6,30.14,SW,234,1.0,2.0,63,0.00,,,0.00,Wunderground v.1.15,2013-04-08 01:18:00,
2013-04-07 22:28:00,33.3,21.3,30.14,WSW,238,2.0,3.0,61,0.00,,,0.00,Wunderground v.1.15,2013-04-08 01:28:00,
2013-04-07 22:33:00,33.5,21.5,30.14,SW,226,2.0,5.0,61,0.00,,,0.00,Wunderground v.1.15,2013-04-08 01:33:00,
2013-04-07 22:38:00,33.8,21.0,30.13,SW,231,3.0,4.0,59,0.00,,,0.00,Wunderground v.1.15,2013-04-08 01:38:00,
2013-04-07 22:43:00,34.1,21.7,30.12,SSW,203,4.0,4.0,60,0.00,,,0.00,Wunderground v.1.15,2013-04-08 01:43:00,
2013-04-07 22:53:00,33.9,21.9,30.11,South,184,2.0,4.0,61,0.00,,,0.00,Wunderground v.1.15,2013-04-08 01:53:00,
2013-04-07 22:58:00,33.8,21.8,30.11,South,177,2.0,2.0,61,0.00,,,0.00,Wunderground v.1.15,2013-04-08 01:58:00,
2013-04-07 23:08:00,33.9,21.9,30.10,South,191,2.0,2.0,61,0.00,,,0.00,Wunderground v.1.15,2013-04-08 02:08:00,
2013-04-07 23:13:00,34.0,21.6,30.10,South,191,2.0,3.0,60,0.00,,,0.00,Wunderground v.1.15,2013-04-08 02:13:00,
2013-04-07 23:18:00,34.1,22.0,30.10,SSW,192,2.0,3.0,61,0.00,,,0.00,Wunderground v.1.15,2013-04-08 02:18:00,
2013-04-07 23:23:00,34.1,22.0,30.10,SSW,192,2.0,3.0,61,0.00,,,0.00,Wunderground v.1.15,2013-04-08 02:23:00,
2013-04-07 23:28:00,34.1,22.0,30.11,SSW,193,2.0,2.0,61,0.00,,,0.00,Wunderground v.1.15,2013-04-08 02:28:00,
2013-04-07 23:33:00,34.1,21.7,30.11,SSW,207,2.0,2.0,60,0.00,,,0.00,Wunderground v.1.15,2013-04-08 02:33:00,
2013-04-07 23:38:00,34.1,22.4,30.11,SSW,207,1.0,1.0,62,0.00,,,0.00,Wunderground v.1.15,2013-04-08 02:38:00,
2013-04-07 23:43:00,34.0,22.0,30.10,SSW,206,1.0,2.0,61,0.00,,,0.00,Wunderground v.1.15,2013-04-08 02:43:00,
2013-04-07 23:48:00,34.0,22.0,30.10,SSW,202,2.0,2.0,61,0.00,,,0.00,Wunderground v.1.15,2013-04-08 02:48:00,
2013-04-07 23:58:00,33.9,22.6,30.10,South,190,2.0,2.0,63,0.00,,,0.00,Wunderground v.1.15,2013-04-08 02:58:00,